DLH491 EDDF-KSEA

Flight info

Callsign DLH491
Flight time N/A
Altitude 24000
Route MARUN8M/25C MARUN Y152 ARPEG/N0457F360 Z850 ABILU DCT ATPAQ DCT OMIMA DCT KARLI DCT ISVIG/M079F360 DCT 67N010W/M079F380 70N020W 73N040W 74N060W DCT DAPAK/N0458F380 DCT 73N080W 7130N09000W 6830N10000W/N0465F400 66N105W 62N110W DCT YSM DCT 55N116W DCT LONRO DCT YDC DCT JAKSN GLASR3
Aircraft A343/H-SDE2E3FGHIJ4J5M1RWXY/LB1D1

Departure

Time 2026-04-18 08:29
Airport Frankfurt Main Airport (EDDF)

Arrival

Time N/A
Airport Seattle–Tacoma International Airport (KSEA)
Time Latitude Longitude Altitude Speed Heading
2026-04-18 08:06 50.04671 8.56046 360 ft 0 kts 340°
2026-04-18 08:14 50.04666 8.56049 360 ft 2 kts 340°
2026-04-18 08:14 50.04648 8.56059 367 ft 3 kts 340°
2026-04-18 08:14 50.04629 8.56070 367 ft 3 kts 338°
2026-04-18 08:15 50.04611 8.56083 365 ft 3 kts 329°
2026-04-18 08:15 50.04596 8.56101 368 ft 3 kts 300°
2026-04-18 08:15 50.04592 8.56118 366 ft 1 kts 251°
2026-04-18 08:15 50.04590 8.56114 368 ft 2 kts 250°
2026-04-18 08:16 50.04583 8.56086 361 ft 3 kts 248°
2026-04-18 08:16 50.04577 8.56060 364 ft 2 kts 249°
2026-04-18 08:16 50.04576 8.56056 364 ft 0 kts 250°
2026-04-18 08:17 50.04576 8.56055 364 ft 0 kts 250°
2026-04-18 08:20 50.04575 8.56052 364 ft 1 kts 250°
2026-04-18 08:20 50.04566 8.56015 364 ft 5 kts 247°
2026-04-18 08:20 50.04543 8.55970 368 ft 5 kts 220°
2026-04-18 08:20 50.04511 8.55948 368 ft 5 kts 198°
2026-04-18 08:21 50.04478 8.55933 365 ft 5 kts 196°
2026-04-18 08:21 50.04444 8.55918 367 ft 5 kts 196°
2026-04-18 08:21 50.04407 8.55908 366 ft 6 kts 184°
2026-04-18 08:21 50.04366 8.55917 362 ft 6 kts 165°
2026-04-18 08:22 50.04318 8.55943 363 ft 8 kts 160°
2026-04-18 08:22 50.04253 8.55950 360 ft 10 kts 200°
2026-04-18 08:22 50.04189 8.55916 363 ft 9 kts 169°
2026-04-18 08:22 50.04126 8.55952 363 ft 10 kts 161°
2026-04-18 08:23 50.04069 8.56002 364 ft 7 kts 119°
2026-04-18 08:23 50.04074 8.56056 362 ft 5 kts 73°
2026-04-18 08:23 50.04091 8.56129 363 ft 11 kts 70°
2026-04-18 08:23 50.04125 8.56270 364 ft 16 kts 70°
2026-04-18 08:24 50.04162 8.56425 363 ft 14 kts 69°
2026-04-18 08:24 50.04195 8.56563 363 ft 13 kts 69°
2026-04-18 08:24 50.04224 8.56683 366 ft 11 kts 70°
2026-04-18 08:24 50.04250 8.56794 369 ft 10 kts 70°
2026-04-18 08:25 50.04281 8.56926 367 ft 16 kts 70°
2026-04-18 08:25 50.04326 8.57113 371 ft 20 kts 69°
2026-04-18 08:25 50.04380 8.57335 369 ft 22 kts 70°
2026-04-18 08:25 50.04433 8.57557 372 ft 21 kts 70°
2026-04-18 08:26 50.04479 8.57755 371 ft 19 kts 69°
2026-04-18 08:26 50.04526 8.57948 370 ft 19 kts 69°
2026-04-18 08:26 50.04573 8.58141 374 ft 19 kts 69°
2026-04-18 08:26 50.04617 8.58325 374 ft 17 kts 70°
2026-04-18 08:27 50.04653 8.58490 374 ft 13 kts 82°
2026-04-18 08:27 50.04604 8.58581 376 ft 11 kts 155°
2026-04-18 08:27 50.04539 8.58622 377 ft 9 kts 160°
2026-04-18 08:27 50.04488 8.58592 378 ft 8 kts 234°
2026-04-18 08:28 50.04444 8.58408 378 ft 38 kts 250°
2026-04-18 08:28 50.04289 8.57759 370 ft 89 kts 250°
2026-04-18 08:28 50.04021 8.56641 367 ft 130 kts 250°
2026-04-18 08:28 50.03667 8.55159 355 ft 164 kts 250°
2026-04-18 08:29 50.03235 8.53440 648 ft 173 kts 249°
2026-04-18 08:29 50.02681 8.51577 803 ft 196 kts 239°
2026-04-18 08:29 50.01719 8.50105 1406 ft 197 kts 209°
2026-04-18 08:29 50.00432 8.49175 1749 ft 217 kts 200°
2026-04-18 08:30 49.98914 8.48473 2171 ft 236 kts 194°
2026-04-18 08:30 49.97255 8.47906 2710 ft 250 kts 193°
2026-04-18 08:30 49.95538 8.47259 3472 ft 255 kts 195°
2026-04-18 08:30 49.93856 8.46426 4415 ft 251 kts 201°
2026-04-18 08:31 49.92330 8.45227 5316 ft 250 kts 218°
2026-04-18 08:31 49.91232 8.43139 6102 ft 252 kts 247°
2026-04-18 08:31 49.90972 8.40441 6859 ft 258 kts 275°
2026-04-18 08:31 49.91481 8.37756 7557 ft 264 kts 299°
2026-04-18 08:32 49.92722 8.35664 8213 ft 273 kts 326°
2026-04-18 08:32 49.94444 8.34334 8834 ft 280 kts 336°